FDX1402 KMEM-KEWR

Flight info

Callsign FDX1402
Flight time 1h 52m
Altitude 35000
Route GOETZ7 DIYAB HITMN Q34 GVE PHLBO4
Aircraft B77L/H-SDE1E2E3FGHIJ2J3J4J5M1RWXY/LB1D1

Departure

Time 2026-04-25 12:34
Airport Memphis International Airport (KMEM)

Arrival

Time 2026-04-25 14:27
Airport Newark Liberty International Airport (KEWR)
Time Latitude Longitude Altitude Speed Heading
2026-04-25 11:59 35.05987 -89.96944 272 ft 0 kts
2026-04-25 12:25 35.05976 -89.96944 271 ft 0 kts
2026-04-25 12:25 35.05965 -89.96944 271 ft 2 kts 353°
2026-04-25 12:25 35.05951 -89.96939 271 ft 2 kts 332°
2026-04-25 12:26 35.05939 -89.96929 271 ft 2 kts 315°
2026-04-25 12:26 35.05930 -89.96915 271 ft 2 kts 297°
2026-04-25 12:26 35.05925 -89.96898 271 ft 2 kts 280°
2026-04-25 12:26 35.05924 -89.96888 271 ft 1 kts 270°
2026-04-25 12:27 35.05924 -89.96884 271 ft 0 kts 270°
2026-04-25 12:28 35.05924 -89.96886 271 ft 2 kts 270°
2026-04-25 12:28 35.05924 -89.96928 271 ft 5 kts 270°
2026-04-25 12:29 35.05925 -89.96997 271 ft 12 kts 272°
2026-04-25 12:29 35.05928 -89.97118 269 ft 14 kts 272°
2026-04-25 12:29 35.05931 -89.97223 269 ft 13 kts 272°
2026-04-25 12:29 35.05934 -89.97322 269 ft 12 kts 272°
2026-04-25 12:30 35.05936 -89.97400 269 ft 8 kts 272°
2026-04-25 12:30 35.05936 -89.97470 269 ft 8 kts 258°
2026-04-25 12:30 35.05887 -89.97499 268 ft 8 kts 174°
2026-04-25 12:30 35.05824 -89.97485 269 ft 10 kts 175°
2026-04-25 12:31 35.05740 -89.97483 270 ft 11 kts 180°
2026-04-25 12:31 35.05654 -89.97485 272 ft 13 kts 181°
2026-04-25 12:31 35.05571 -89.97485 275 ft 10 kts 179°
2026-04-25 12:31 35.05524 -89.97486 277 ft 0 kts 189°
2026-04-25 12:32 35.05520 -89.97487 277 ft 3 kts 189°
2026-04-25 12:32 35.05483 -89.97506 278 ft 8 kts 215°
2026-04-25 12:33 35.05442 -89.97571 278 ft 10 kts 250°
2026-04-25 12:33 35.05393 -89.97615 279 ft 8 kts 182°
2026-04-25 12:33 35.05291 -89.97611 282 ft 25 kts 180°
2026-04-25 12:33 35.04826 -89.97603 293 ft 109 kts 179°
2026-04-25 12:34 35.03795 -89.97578 329 ft 182 kts 179°
2026-04-25 12:34 35.02476 -89.97551 1064 ft 198 kts 179°
2026-04-25 12:34 35.01052 -89.97539 2114 ft 209 kts 180°
2026-04-25 12:34 35.00136 -89.97543 2961 ft 206 kts 179°
2026-04-25 12:35 34.98177 -89.97495 4194 ft 216 kts 175°
2026-04-25 12:35 34.96672 -89.96968 4701 ft 239 kts 147°
2026-04-25 12:35 34.95233 -89.95779 5384 ft 254 kts 141°
2026-04-25 12:35 34.93985 -89.94233 6125 ft 267 kts 123°
2026-04-25 12:36 34.93216 -89.92175 6978 ft 275 kts 104°
2026-04-25 12:36 34.92874 -89.89867 7773 ft 285 kts 95°
2026-04-25 12:36 34.92707 -89.87452 8698 ft 290 kts 92°
2026-04-25 12:36 34.92668 -89.84984 9596 ft 294 kts 81°
2026-04-25 12:37 34.93284 -89.82629 10367 ft 299 kts 61°
2026-04-25 12:37 34.94311 -89.80354 10925 ft 317 kts 57°
2026-04-25 12:37 34.95484 -89.77940 11484 ft 336 kts 57°
2026-04-25 12:37 34.96690 -89.75452 12085 ft 353 kts 58°
2026-04-25 12:38 34.97979 -89.72749 12685 ft 371 kts 58°
2026-04-25 12:38 34.99304 -89.69932 13309 ft 387 kts 58°
2026-04-25 12:38 35.00681 -89.67000 13920 ft 403 kts 58°
2026-04-25 12:38 35.02090 -89.63999 14698 ft 413 kts 58°
2026-04-25 12:39 35.03524 -89.60941 15686 ft 417 kts 57°
2026-04-25 12:39 35.04951 -89.57896 16579 ft 422 kts 57°
2026-04-25 12:39 35.06425 -89.54750 17380 ft 429 kts 57°
2026-04-25 12:39 35.07935 -89.51525 18157 ft 437 kts 57°
2026-04-25 12:40 35.09462 -89.48261 19001 ft 443 kts 57°
2026-04-25 12:40 35.10988 -89.44995 19835 ft 448 kts 57°
2026-04-25 12:40 35.12526 -89.41698 20550 ft 456 kts 57°
2026-04-25 12:40 35.14106 -89.38312 21304 ft 462 kts 57°
2026-04-25 12:41 35.15695 -89.34901 21990 ft 469 kts 58°
2026-04-25 12:41 35.17327 -89.31396 22657 ft 476 kts 58°
2026-04-25 12:41 35.18962 -89.27878 23370 ft 481 kts 58°
2026-04-25 12:41 35.20589 -89.24355 24356 ft 478 kts 60°
2026-04-25 12:42 35.21918 -89.20680 25550 ft 473 kts 69°
2026-04-25 12:42 35.22621 -89.18131 26170 ft 473 kts 70°
2026-04-25 12:42 35.23946 -89.13047 26853 ft 483 kts 71°
2026-04-25 12:42 35.24976 -89.09074 26890 ft 484 kts 70°
2026-04-25 12:43 35.25987 -89.05173 26890 ft 480 kts 70°
2026-04-25 12:43 35.26990 -89.01301 26895 ft 480 kts 71°
2026-04-25 12:43 35.29015 -88.93486 26895 ft 481 kts 70°
2026-04-25 12:44 35.30035 -88.89545 26895 ft 482 kts 70°
2026-04-25 12:44 35.31040 -88.85670 26895 ft 482 kts 71°
2026-04-25 12:44 35.33057 -88.77879 26897 ft 480 kts 71°
2026-04-25 12:45 35.34068 -88.73973 26896 ft 482 kts 70°
2026-04-25 12:45 35.35076 -88.70079 26893 ft 479 kts 70°
2026-04-25 12:45 35.37078 -88.62347 26895 ft 479 kts 71°
2026-04-25 12:46 35.38081 -88.58469 26898 ft 479 kts 71°
2026-04-25 12:46 35.39092 -88.54555 26889 ft 479 kts 71°
2026-04-25 12:46 35.40086 -88.50697 26890 ft 479 kts 71°
2026-04-25 12:46 35.41089 -88.46797 26841 ft 478 kts 71°
2026-04-25 12:47 35.42090 -88.42902 26762 ft 477 kts 71°
2026-04-25 12:47 35.43080 -88.39053 26693 ft 478 kts 71°
2026-04-25 12:47 35.44093 -88.35160 26687 ft 478 kts 70°
2026-04-25 12:47 35.45158 -88.31279 26546 ft 479 kts 71°
2026-04-25 12:48 35.46194 -88.27470 26437 ft 475 kts 69°
2026-04-25 12:48 35.47520 -88.23769 26566 ft 474 kts 61°
2026-04-25 12:48 35.49083 -88.20139 26802 ft 486 kts 60°
2026-04-25 12:48 35.50676 -88.16485 26884 ft 501 kts 60°
2026-04-25 12:49 35.52341 -88.12659 26895 ft 515 kts 60°
2026-04-25 12:49 35.54043 -88.08743 26887 ft 515 kts 60°
2026-04-25 12:49 35.55702 -88.04919 26894 ft 513 kts 60°
2026-04-25 12:49 35.57391 -88.01022 26889 ft 513 kts 60°
2026-04-25 12:50 35.59061 -87.97166 26890 ft 514 kts 60°
2026-04-25 12:50 35.60738 -87.93287 26888 ft 513 kts 60°
2026-04-25 12:50 35.62412 -87.89414 26888 ft 514 kts 60°
2026-04-25 12:50 35.64086 -87.85534 26889 ft 514 kts 61°
2026-04-25 12:51 35.65742 -87.81691 26892 ft 513 kts 60°
2026-04-25 12:51 35.67425 -87.77781 26893 ft 515 kts 60°
2026-04-25 12:51 35.69086 -87.73919 26888 ft 514 kts 60°
2026-04-25 12:51 35.70778 -87.69978 26896 ft 526 kts 61°
2026-04-25 12:52 35.72489 -87.65992 26895 ft 532 kts 61°
2026-04-25 12:52 35.74197 -87.62004 26893 ft 531 kts 61°
2026-04-25 12:52 35.75935 -87.57945 26889 ft 530 kts 61°
2026-04-25 12:52 35.77644 -87.53945 26889 ft 531 kts 61°
2026-04-25 12:53 35.79359 -87.49925 26888 ft 534 kts 61°
2026-04-25 12:53 35.81089 -87.45868 26896 ft 530 kts 61°
2026-04-25 12:53 35.82808 -87.41830 26898 ft 530 kts 61°
2026-04-25 12:53 35.84512 -87.37826 26900 ft 530 kts 61°
2026-04-25 12:54 35.86227 -87.33787 26895 ft 531 kts 62°
2026-04-25 12:54 35.87941 -87.29746 26884 ft 532 kts 62°
2026-04-25 12:54 35.89652 -87.25710 26886 ft 531 kts 62°
2026-04-25 12:54 35.91369 -87.21653 26890 ft 529 kts 62°
2026-04-25 12:55 35.93082 -87.17601 26890 ft 532 kts 62°
2026-04-25 12:55 35.94214 -87.14921 26893 ft 530 kts 62°
2026-04-25 12:55 35.96481 -87.09546 26893 ft 530 kts 62°
2026-04-25 12:55 35.98179 -87.05513 26894 ft 532 kts 62°
2026-04-25 12:56 35.99893 -87.01439 26900 ft 530 kts 62°
2026-04-25 12:56 36.01596 -86.97386 26892 ft 530 kts 62°
2026-04-25 12:56 36.03287 -86.93354 26896 ft 531 kts 62°
2026-04-25 12:56 36.05000 -86.89268 26899 ft 532 kts 62°
2026-04-25 12:57 36.06696 -86.85217 26891 ft 531 kts 62°
2026-04-25 12:57 36.08408 -86.81120 26898 ft 531 kts 62°
2026-04-25 12:57 36.10101 -86.77066 26899 ft 531 kts 62°
2026-04-25 12:57 36.11810 -86.72968 26895 ft 532 kts 62°
2026-04-25 12:58 36.13473 -86.68908 26901 ft 532 kts 65°
2026-04-25 12:58 36.14906 -86.64725 26906 ft 532 kts 68°
2026-04-25 12:58 36.16281 -86.60506 26904 ft 533 kts 68°
2026-04-25 12:58 36.17665 -86.56239 26908 ft 532 kts 68°
2026-04-25 12:59 36.19039 -86.51994 26911 ft 531 kts 68°
2026-04-25 12:59 36.20391 -86.47813 26907 ft 532 kts 68°
2026-04-25 12:59 36.21766 -86.43555 26902 ft 533 kts 68°
2026-04-25 12:59 36.23143 -86.39286 26908 ft 532 kts 68°
2026-04-25 13:00 36.24504 -86.35062 26913 ft 534 kts 68°
2026-04-25 13:00 36.25436 -86.32164 26906 ft 534 kts 69°
2026-04-25 13:00 36.27271 -86.26457 26903 ft 531 kts 69°
2026-04-25 13:00 36.28627 -86.22227 26904 ft 533 kts 69°
2026-04-25 13:01 36.29988 -86.17980 26894 ft 532 kts 69°
2026-04-25 13:01 36.31351 -86.13718 26897 ft 530 kts 69°
2026-04-25 13:01 36.32718 -86.09439 26898 ft 534 kts 68°
2026-04-25 13:01 36.34080 -86.05170 26897 ft 534 kts 68°
2026-04-25 13:02 36.35426 -86.00946 26900 ft 532 kts 69°
2026-04-25 13:02 36.36794 -85.96642 26902 ft 532 kts 69°
2026-04-25 13:02 36.38151 -85.92371 26905 ft 532 kts 69°
2026-04-25 13:02 36.39494 -85.88135 26895 ft 531 kts 69°
2026-04-25 13:03 36.40850 -85.83852 26900 ft 531 kts 69°
2026-04-25 13:03 36.42188 -85.79621 26911 ft 532 kts 69°
2026-04-25 13:03 36.43543 -85.75330 26903 ft 532 kts 69°
2026-04-25 13:03 36.44891 -85.71056 26903 ft 532 kts 69°
2026-04-25 13:04 36.46251 -85.66734 26901 ft 533 kts 69°
2026-04-25 13:04 36.47580 -85.62507 26905 ft 531 kts 69°
2026-04-25 13:04 36.48937 -85.58182 26906 ft 531 kts 69°
2026-04-25 13:04 36.50278 -85.53906 26908 ft 531 kts 69°
2026-04-25 13:05 36.51622 -85.49610 26904 ft 530 kts 69°
2026-04-25 13:05 36.52940 -85.45393 26909 ft 531 kts 69°
2026-04-25 13:05 36.54279 -85.41099 26910 ft 531 kts 69°
2026-04-25 13:05 36.55608 -85.36834 26915 ft 531 kts 69°
2026-04-25 13:06 36.56944 -85.32539 26911 ft 531 kts 69°
2026-04-25 13:06 36.58267 -85.28278 26912 ft 531 kts 69°
2026-04-25 13:06 36.59601 -85.23978 26903 ft 532 kts 69°
2026-04-25 13:06 36.60935 -85.19669 26908 ft 531 kts 69°
2026-04-25 13:07 36.62246 -85.15430 26910 ft 532 kts 69°
2026-04-25 13:07 36.63586 -85.11088 26914 ft 530 kts 70°
2026-04-25 13:07 36.64914 -85.06780 26910 ft 530 kts 69°
2026-04-25 13:07 36.66244 -85.02456 26916 ft 530 kts 69°
2026-04-25 13:08 36.67555 -84.98189 26916 ft 531 kts 69°
2026-04-25 13:08 36.68876 -84.93883 26918 ft 531 kts 69°
2026-04-25 13:08 36.70195 -84.89574 26927 ft 533 kts 69°
2026-04-25 13:08 36.71517 -84.85253 26918 ft 532 kts 69°
2026-04-25 13:09 36.72847 -84.80894 26927 ft 531 kts 69°
2026-04-25 13:09 36.74171 -84.76553 26923 ft 532 kts 69°
2026-04-25 13:09 36.75474 -84.72274 26923 ft 524 kts 69°
2026-04-25 13:09 36.76762 -84.68035 26937 ft 506 kts 69°
2026-04-25 13:10 36.77982 -84.64018 27000 ft 490 kts 69°
2026-04-25 13:10 36.79181 -84.60062 27278 ft 481 kts 69°
2026-04-25 13:10 36.80378 -84.56106 27900 ft 478 kts 69°
2026-04-25 13:10 36.81546 -84.52240 28824 ft 476 kts 69°
2026-04-25 13:11 36.82691 -84.48447 29857 ft 470 kts 69°
2026-04-25 13:11 36.83834 -84.44653 30657 ft 468 kts 69°
2026-04-25 13:11 36.84919 -84.41047 31139 ft 473 kts 69°
2026-04-25 13:11 36.86090 -84.37151 31690 ft 476 kts 69°
2026-04-25 13:12 36.87255 -84.33272 32367 ft 475 kts 69°
2026-04-25 13:12 36.88409 -84.29422 32853 ft 478 kts 69°
2026-04-25 13:12 36.89571 -84.25539 33084 ft 486 kts 69°
2026-04-25 13:12 36.90372 -84.22861 33260 ft 492 kts 69°
2026-04-25 13:13 36.91968 -84.17514 33624 ft 502 kts 69°
2026-04-25 13:13 36.93196 -84.13397 33892 ft 510 kts 69°
2026-04-25 13:13 36.94436 -84.09228 34185 ft 518 kts 69°
2026-04-25 13:13 36.95697 -84.04987 34479 ft 525 kts 69°
2026-04-25 13:14 36.96963 -84.00717 34769 ft 533 kts 69°
2026-04-25 13:14 36.98267 -83.96317 34945 ft 542 kts 69°
2026-04-25 13:14 37.00831 -83.87634 34931 ft 528 kts 68°
2026-04-25 13:15 37.03361 -83.79046 34935 ft 529 kts 68°
2026-04-25 13:15 37.05894 -83.70420 34936 ft 527 kts 68°
2026-04-25 13:16 37.08406 -83.61838 34930 ft 528 kts 69°
2026-04-25 13:16 37.10916 -83.53234 34934 ft 527 kts 68°
2026-04-25 13:17 37.13411 -83.44661 34932 ft 527 kts 68°
2026-04-25 13:17 37.15904 -83.36061 34934 ft 526 kts 68°
2026-04-25 13:18 37.18389 -83.27467 34918 ft 525 kts 69°
2026-04-25 13:18 37.20880 -83.18820 34922 ft 525 kts 69°
2026-04-25 13:19 37.23356 -83.10201 34916 ft 524 kts 69°
2026-04-25 13:19 37.25409 -83.03033 34921 ft 525 kts 69°
2026-04-25 13:20 37.28265 -82.93029 34917 ft 524 kts 69°
2026-04-25 13:20 37.30706 -82.84446 34924 ft 522 kts 69°
2026-04-25 13:21 37.33141 -82.75858 34926 ft 523 kts 69°
2026-04-25 13:21 37.35571 -82.67261 34927 ft 522 kts 69°
2026-04-25 13:22 37.37989 -82.58682 34931 ft 524 kts 69°
2026-04-25 13:23 37.41602 -82.45804 34932 ft 521 kts 69°
2026-04-25 13:23 37.43989 -82.37264 34931 ft 521 kts 69°
2026-04-25 13:24 37.46382 -82.28677 34923 ft 521 kts 69°
2026-04-25 13:24 37.48766 -82.20089 34922 ft 522 kts 69°
2026-04-25 13:25 37.51154 -82.11461 34919 ft 519 kts 69°
2026-04-25 13:25 37.53511 -82.02919 34924 ft 521 kts 70°
2026-04-25 13:26 37.55872 -81.94334 34922 ft 520 kts 69°
2026-04-25 13:26 37.58232 -81.85725 34923 ft 519 kts 69°
2026-04-25 13:27 37.60560 -81.77205 34926 ft 518 kts 69°
2026-04-25 13:27 37.62896 -81.68625 34930 ft 518 kts 69°
2026-04-25 13:28 37.65225 -81.60040 34934 ft 517 kts 69°
2026-04-25 13:28 37.67533 -81.51507 34940 ft 518 kts 69°
2026-04-25 13:29 37.69837 -81.42956 34941 ft 516 kts 69°
2026-04-25 13:29 37.72138 -81.34395 34942 ft 517 kts 70°
2026-04-25 13:30 37.75580 -81.21528 34937 ft 516 kts 70°
2026-04-25 13:31 37.78278 -81.08436 34936 ft 516 kts 84°
2026-04-25 13:31 37.78905 -80.99469 34939 ft 516 kts 85°
2026-04-25 13:32 37.79505 -80.90462 34946 ft 516 kts 85°
2026-04-25 13:32 37.80100 -80.81441 34950 ft 517 kts 85°
2026-04-25 13:33 37.80686 -80.72452 34955 ft 517 kts 84°
2026-04-25 13:33 37.81269 -80.63409 34948 ft 518 kts 84°
2026-04-25 13:34 37.81842 -80.54406 34933 ft 515 kts 84°
2026-04-25 13:34 37.82413 -80.45347 34916 ft 517 kts 85°
2026-04-25 13:35 37.82971 -80.36359 34916 ft 516 kts 85°
2026-04-25 13:35 37.83524 -80.27337 34910 ft 518 kts 85°
2026-04-25 13:36 37.84075 -80.18251 34935 ft 516 kts 85°
2026-04-25 13:36 37.84613 -80.09251 34932 ft 517 kts 85°
2026-04-25 13:37 37.85148 -80.00185 34933 ft 517 kts 85°
2026-04-25 13:37 37.85676 -79.91125 34947 ft 516 kts 85°
2026-04-25 13:38 37.86193 -79.82134 34953 ft 517 kts 85°
2026-04-25 13:38 37.86704 -79.73126 34940 ft 515 kts 85°
2026-04-25 13:39 37.87041 -79.64061 34933 ft 517 kts 86°
2026-04-25 13:39 37.87334 -79.55039 34921 ft 515 kts 86°
2026-04-25 13:40 37.87628 -79.45991 34903 ft 515 kts 86°
2026-04-25 13:40 37.87918 -79.36954 34912 ft 514 kts 86°
2026-04-25 13:41 37.88613 -79.27996 34912 ft 513 kts 80°
2026-04-25 13:41 37.89667 -79.19082 34901 ft 514 kts 80°
2026-04-25 13:42 37.90713 -79.10165 34897 ft 512 kts 80°
2026-04-25 13:42 37.91745 -79.01299 34889 ft 513 kts 80°
2026-04-25 13:43 37.92773 -78.92384 34886 ft 512 kts 80°
2026-04-25 13:43 37.93795 -78.83463 34884 ft 511 kts 80°
2026-04-25 13:44 37.94805 -78.74573 34880 ft 513 kts 79°
2026-04-25 13:44 37.95809 -78.65672 34884 ft 511 kts 80°
2026-04-25 13:45 37.96805 -78.56784 34885 ft 510 kts 79°
2026-04-25 13:45 37.97796 -78.47881 34884 ft 511 kts 79°
2026-04-25 13:46 37.98771 -78.39048 34886 ft 511 kts 79°
2026-04-25 13:46 37.99753 -78.30094 34882 ft 510 kts 80°
2026-04-25 13:47 38.00718 -78.21275 34878 ft 510 kts 78°
2026-04-25 13:47 38.02792 -78.12765 34890 ft 501 kts 60°
2026-04-25 13:48 38.06316 -78.05264 34888 ft 498 kts 53°
2026-04-25 13:48 38.10006 -77.97885 34894 ft 497 kts 53°
2026-04-25 13:49 38.13712 -77.90438 34899 ft 497 kts 53°
2026-04-25 13:49 38.17379 -77.83042 34899 ft 496 kts 53°
2026-04-25 13:50 38.21057 -77.75600 34900 ft 498 kts 53°
2026-04-25 13:50 38.24694 -77.68223 34903 ft 498 kts 53°
2026-04-25 13:51 38.28379 -77.60726 34908 ft 496 kts 53°
2026-04-25 13:51 38.32020 -77.53305 34909 ft 497 kts 53°
2026-04-25 13:52 38.35661 -77.45863 34916 ft 498 kts 53°
2026-04-25 13:52 38.39310 -77.38390 34922 ft 498 kts 53°
2026-04-25 13:53 38.42941 -77.30933 34915 ft 497 kts 53°
2026-04-25 13:53 38.46564 -77.23477 34922 ft 497 kts 53°
2026-04-25 13:54 38.50206 -77.15966 34923 ft 498 kts 53°
2026-04-25 13:54 38.53822 -77.08487 34925 ft 496 kts 53°
2026-04-25 13:55 38.57410 -77.01053 34928 ft 496 kts 53°
2026-04-25 13:55 38.61027 -76.93541 34929 ft 497 kts 53°
2026-04-25 13:56 38.64642 -76.86015 34934 ft 498 kts 53°
2026-04-25 13:56 38.68249 -76.78485 34937 ft 495 kts 53°
2026-04-25 13:57 38.71830 -76.70994 34940 ft 497 kts 53°
2026-04-25 13:57 38.75860 -76.64026 34939 ft 486 kts 39°
2026-04-25 13:58 38.81044 -76.58585 34944 ft 478 kts 31°
2026-04-25 13:58 38.86317 -76.53441 34952 ft 478 kts 31°
2026-04-25 13:59 38.91591 -76.48281 34949 ft 477 kts 31°
2026-04-25 13:59 38.96842 -76.43128 34501 ft 474 kts 31°
2026-04-25 13:59 38.99477 -76.40539 33535 ft 479 kts 31°
2026-04-25 14:00 39.02088 -76.37971 32786 ft 480 kts 31°
2026-04-25 14:00 39.04712 -76.35280 32008 ft 483 kts 36°
2026-04-25 14:00 39.07191 -76.32379 31185 ft 486 kts 38°
2026-04-25 14:00 39.09663 -76.29446 30447 ft 485 kts 37°
2026-04-25 14:01 39.12117 -76.26540 30016 ft 478 kts 37°
2026-04-25 14:01 39.14550 -76.23666 29557 ft 472 kts 37°
2026-04-25 14:01 39.16975 -76.20808 29063 ft 468 kts 37°
2026-04-25 14:01 39.19342 -76.18023 28556 ft 464 kts 37°
2026-04-25 14:02 39.21704 -76.15246 28045 ft 460 kts 37°
2026-04-25 14:02 39.24061 -76.12476 27515 ft 457 kts 37°
2026-04-25 14:02 39.26383 -76.09747 26998 ft 453 kts 37°
2026-04-25 14:02 39.27953 -76.07900 26671 ft 450 kts 37°
2026-04-25 14:03 39.31050 -76.04261 26192 ft 460 kts 37°
2026-04-25 14:03 39.33403 -76.01493 25800 ft 460 kts 38°
2026-04-25 14:03 39.35778 -75.98694 25396 ft 455 kts 38°
2026-04-25 14:03 39.38096 -75.95959 25012 ft 450 kts 38°
2026-04-25 14:04 39.40393 -75.93247 24621 ft 446 kts 38°
2026-04-25 14:04 39.42661 -75.90569 24245 ft 444 kts 38°
2026-04-25 14:04 39.44910 -75.87911 23873 ft 441 kts 38°
2026-04-25 14:04 39.47176 -75.85230 23493 ft 438 kts 38°
2026-04-25 14:05 39.49417 -75.82577 23112 ft 435 kts 38°
2026-04-25 14:05 39.51623 -75.79963 22743 ft 433 kts 38°
2026-04-25 14:05 39.53850 -75.77322 22364 ft 431 kts 38°
2026-04-25 14:05 39.56053 -75.74707 21991 ft 429 kts 38°
2026-04-25 14:06 39.58226 -75.72125 21625 ft 426 kts 38°
2026-04-25 14:06 39.60417 -75.69520 21252 ft 424 kts 38°
2026-04-25 14:06 39.62587 -75.66937 20884 ft 423 kts 38°
2026-04-25 14:06 39.64731 -75.64384 20520 ft 422 kts 38°
2026-04-25 14:07 39.66894 -75.61804 20154 ft 419 kts 38°
2026-04-25 14:07 39.69038 -75.59242 19776 ft 417 kts 38°
2026-04-25 14:07 39.71154 -75.56697 19326 ft 417 kts 38°
2026-04-25 14:07 39.73276 -75.54140 18870 ft 414 kts 38°
2026-04-25 14:08 39.75396 -75.51585 18425 ft 411 kts 39°
2026-04-25 14:08 39.77470 -75.49084 17992 ft 409 kts 39°
2026-04-25 14:08 39.79547 -75.46576 17509 ft 407 kts 38°
2026-04-25 14:08 39.81619 -75.44073 17044 ft 404 kts 39°
2026-04-25 14:09 39.83651 -75.41615 16609 ft 400 kts 39°
2026-04-25 14:09 39.85676 -75.39166 16184 ft 396 kts 39°
2026-04-25 14:09 39.87703 -75.36710 15762 ft 394 kts 39°
2026-04-25 14:09 39.89035 -75.35097 15484 ft 393 kts 39°
2026-04-25 14:10 39.91687 -75.31882 14927 ft 390 kts 40°
2026-04-25 14:10 39.93679 -75.29462 14503 ft 387 kts 40°
2026-04-25 14:10 39.95632 -75.27090 14096 ft 384 kts 40°
2026-04-25 14:10 39.97580 -75.24721 13696 ft 381 kts 40°
2026-04-25 14:11 39.99507 -75.22375 13344 ft 380 kts 40°
2026-04-25 14:11 40.01445 -75.20015 12985 ft 378 kts 40°
2026-04-25 14:11 40.03347 -75.17696 12630 ft 374 kts 40°
2026-04-25 14:11 40.05233 -75.15395 12280 ft 373 kts 40°
2026-04-25 14:12 40.07119 -75.13094 11927 ft 370 kts 40°
2026-04-25 14:12 40.08976 -75.10825 11576 ft 366 kts 40°
2026-04-25 14:12 40.10837 -75.08549 11234 ft 364 kts 40°
2026-04-25 14:12 40.12605 -75.06385 10908 ft 363 kts 39°
2026-04-25 14:13 40.14443 -75.04133 10587 ft 355 kts 39°
2026-04-25 14:13 40.16203 -75.01975 10307 ft 347 kts 40°
2026-04-25 14:13 40.17952 -74.99829 10025 ft 340 kts 39°
2026-04-25 14:13 40.19646 -74.97749 9735 ft 333 kts 39°
2026-04-25 14:14 40.21317 -74.95697 9327 ft 324 kts 39°
2026-04-25 14:14 40.22918 -74.93729 9074 ft 312 kts 40°
2026-04-25 14:14 40.24484 -74.91802 8563 ft 306 kts 40°
2026-04-25 14:14 40.26014 -74.89899 8024 ft 302 kts 43°
2026-04-25 14:15 40.27432 -74.87901 7535 ft 298 kts 45°
2026-04-25 14:15 40.27885 -74.87246 7382 ft 296 kts 45°
2026-04-25 14:15 40.30168 -74.83993 6596 ft 288 kts 45°
2026-04-25 14:15 40.31389 -74.81960 6147 ft 288 kts 62°
2026-04-25 14:16 40.32190 -74.79576 5931 ft 282 kts 68°
2026-04-25 14:16 40.32922 -74.77189 5846 ft 282 kts 68°
2026-04-25 14:16 40.33663 -74.74808 5442 ft 285 kts 65°
2026-04-25 14:16 40.34594 -74.72508 5031 ft 287 kts 61°
2026-04-25 14:17 40.35569 -74.70266 4918 ft 275 kts 61°
2026-04-25 14:17 40.36497 -74.68141 4910 ft 266 kts 61°
2026-04-25 14:17 40.37410 -74.66048 4911 ft 266 kts 61°
2026-04-25 14:17 40.38321 -74.63954 4913 ft 266 kts 61°
2026-04-25 14:18 40.39247 -74.61826 4917 ft 265 kts 61°
2026-04-25 14:18 40.40149 -74.59753 4919 ft 265 kts 61°
2026-04-25 14:18 40.41065 -74.57644 4916 ft 266 kts 61°
2026-04-25 14:18 40.41976 -74.55547 4917 ft 265 kts 61°
2026-04-25 14:19 40.42890 -74.53442 4916 ft 266 kts 61°
2026-04-25 14:19 40.43807 -74.51326 4685 ft 270 kts 61°
2026-04-25 14:19 40.44754 -74.49141 3826 ft 280 kts 63°
2026-04-25 14:19 40.45700 -74.46960 3344 ft 272 kts 63°
2026-04-25 14:20 40.46613 -74.44852 2996 ft 261 kts 63°
2026-04-25 14:20 40.47202 -74.43494 2952 ft 249 kts 64°
2026-04-25 14:20 40.48301 -74.40949 2929 ft 231 kts 65°
2026-04-25 14:20 40.48882 -74.39060 2930 ft 219 kts 75°
2026-04-25 14:21 40.49330 -74.37181 2931 ft 211 kts 76°
2026-04-25 14:21 40.49755 -74.35370 2933 ft 208 kts 76°
2026-04-25 14:21 40.50155 -74.33671 2928 ft 195 kts 77°
2026-04-25 14:21 40.50545 -74.32014 2930 ft 186 kts 77°
2026-04-25 14:22 40.50924 -74.30399 2932 ft 183 kts 77°
2026-04-25 14:22 40.51305 -74.28808 2935 ft 184 kts 72°
2026-04-25 14:22 40.52072 -74.27489 2927 ft 188 kts 40°
2026-04-25 14:22 40.53169 -74.26637 2934 ft 181 kts 34°
2026-04-25 14:23 40.54287 -74.25878 2937 ft 178 kts 31°
2026-04-25 14:23 40.55420 -74.25178 2759 ft 177 kts 30°
2026-04-25 14:23 40.56490 -74.24524 2538 ft 163 kts 31°
2026-04-25 14:23 40.57481 -74.23905 2336 ft 154 kts 31°
2026-04-25 14:24 40.58437 -74.23305 2149 ft 149 kts 31°
2026-04-25 14:24 40.59381 -74.22710 1951 ft 150 kts 32°
2026-04-25 14:24 40.60312 -74.22124 1746 ft 149 kts 32°
2026-04-25 14:24 40.61243 -74.21535 1545 ft 148 kts 32°
2026-04-25 14:25 40.62176 -74.20946 1343 ft 148 kts 31°
2026-04-25 14:25 40.63107 -74.20355 1133 ft 148 kts 31°
2026-04-25 14:25 40.64025 -74.19775 890 ft 147 kts 30°
2026-04-25 14:25 40.64641 -74.19403 736 ft 146 kts 31°
2026-04-25 14:26 40.65867 -74.18614 494 ft 146 kts 29°
2026-04-25 14:26 40.66787 -74.18049 309 ft 145 kts 30°
2026-04-25 14:26 40.67692 -74.17471 129 ft 144 kts 31°
2026-04-25 14:26 40.68584 -74.16894 20 ft 135 kts 27°
2026-04-25 14:27 40.69136 -74.16550 20 ft 38 kts 25°
2026-04-25 14:27 40.69343 -74.16459 20 ft 29 kts
2026-04-25 14:27 40.69517 -74.16471 20 ft 11 kts 355°
2026-04-25 14:27 40.69587 -74.16497 20 ft 10 kts 323°
2026-04-25 14:28 40.69627 -74.16580 20 ft 12 kts 295°
2026-04-25 14:28 40.69666 -74.16677 20 ft 12 kts 298°
2026-04-25 14:28 40.69682 -74.16726 20 ft 4 kts 272°
2026-04-25 14:28 40.69663 -74.16759 20 ft 5 kts 210°
2026-04-25 14:29 40.69639 -74.16776 20 ft 3 kts 209°
2026-04-25 14:29 40.69614 -74.16793 20 ft 4 kts 206°
2026-04-25 14:29 40.69578 -74.16815 20 ft 6 kts 205°
2026-04-25 14:29 40.69537 -74.16840 20 ft 6 kts 205°
2026-04-25 14:30 40.69502 -74.16875 20 ft 6 kts 243°
2026-04-25 14:30 40.69490 -74.16982 20 ft 6 kts 210°
2026-04-25 14:30 40.69441 -74.17017 20 ft 11 kts 208°
2026-04-25 14:31 40.69346 -74.17084 20 ft 19 kts 207°
2026-04-25 14:31 40.69202 -74.17174 20 ft 24 kts 206°
2026-04-25 14:31 40.69054 -74.17266 20 ft 22 kts 205°
2026-04-25 14:31 40.68914 -74.17354 20 ft 21 kts 206°
2026-04-25 14:32 40.68783 -74.17437 20 ft 20 kts 205°
2026-04-25 14:32 40.68661 -74.17515 20 ft 18 kts 206°
2026-04-25 14:32 40.68533 -74.17595 20 ft 23 kts 205°
2026-04-25 14:32 40.68389 -74.17687 20 ft 22 kts 207°
2026-04-25 14:33 40.68251 -74.17774 20 ft 21 kts 205°
2026-04-25 14:33 40.68124 -74.17853 20 ft 19 kts 206°
2026-04-25 14:33 40.68004 -74.17931 20 ft 18 kts 206°
2026-04-25 14:33 40.67908 -74.17991 20 ft 10 kts 206°
2026-04-25 14:34 40.67871 -74.18018 20 ft 4 kts 225°
2026-04-25 14:34 40.67863 -74.18062 20 ft 5 kts 285°
2026-04-25 14:34 40.67883 -74.18108 20 ft 6 kts 300°
2026-04-25 14:34 40.67883 -74.18161 20 ft 6 kts 249°
2026-04-25 14:35 40.67857 -74.18209 20 ft 6 kts 218°
2026-04-25 14:35 40.67818 -74.18237 20 ft 6 kts 204°
2026-04-25 14:35 40.67784 -74.18279 20 ft 6 kts 238°
2026-04-25 14:35 40.67755 -74.18326 20 ft 6 kts 219°
2026-04-25 14:36 40.67722 -74.18352 20 ft 3 kts 207°
2026-04-25 14:36 40.67704 -74.18363 20 ft 0 kts 206°
2026-04-25 14:36 40.67697 -74.18368 20 ft 0 kts 206°